FENGYUN 1C DEB

Satellite information

Favourite Embed

Satellite Type and Status

DEBRISIN ORBIT

Key statistics

Satellite FENGYUN 1C DEB at a glance.

Uptime

9714

Days in orbit

Revolutions

≈ 14.3

Per day

Orbit

SSO

Sun Synchronous Orbit

Inclination

99.4

Latest

Satellite identification and parameters

Extended collection of information and parameters for FENGYUN 1C DEB.

Object identification

Identified? True

Debris? True

Object name: FENGYUN 1C DEB

International designator: 1999-025CCF

Object number (NORAD): 31673

Object ID (CCSDS): 31673

Country: PEOPLES REPUBLIC OF CHINA (PRC)

Current information (Y/N): Y

RCS size: SMALL

Orbital parameters

Period: 100.563 minutes

Inclination: 99.3746 deg

SMA: 7163.408 km

Apoapsis: 875.403 km

Periapsis: 695.143 km

RAAN: 176.3979 deg

Eccentricy: 0.01258202

Argument of periapsis: 61.7337 deg

Mean anomaly: 299.6476 deg

Mean motion: 14.31934796 rev/day

Mean motion (dot): 0.00001056 rev/day2

B* drag term: 0.00037901673 1/REarth

Two-line elements (TLE)

Creation date: Dec. 8, 2025, 11:02 a.m.

Reference frame: TEME

Reference center: EARTH

Epoch: Dec. 8, 2025, 6:45 a.m. UTC

TLE line 0: 0 FENGYUN 1C DEB

TLE line 1: 1 31673U 99025CCF 25342.28185284 .00001056 00000-0 37902-3 0 9995

TLE line 2: 2 31673 99.3746 176.3979 0125820 61.7337 299.6476 14.31934796648274

Live tracking on map

Real-time ground track for satellite FENGYUN 1C DEB.

In-orbit conjunctions

A list of the most updated potential collisions computed for object FENGYUN 1C DEB.

Target Orbit TCA Probability of collision Miss distance Type
COSMOS 1452 LEO 2025-02-10 08:44:40 0.0006323392 267.0 (m) PAYLOAD
FENGYUN 1C DEB SSO 2025-01-18 12:11:09 0.000229572 163.0 (m) DEBRIS
CZ-6A DEB LEO 2024-12-26 11:40:53 0.0002459599 889.0 (m) DEBRIS
DELTA 1 R/B(1) LEO 2024-10-08 18:43:20 0.0002832922 922.0 (m) ROCKET BODY

Associated space launch

Chinese polar orbiting meteorological satellite

FENGYUN 1C DEB was lifted into orbit during the mission ‘Long March 4B | Feng Yun 1C’, on board a Long March 4B space rocket.

The launch took place on May 10, 1999, 1:33 a.m. from Launch Complex 7.

For more information about the launch, click the button.

Launch to space Long March 4B | Feng Yun 1C
Long March 4B | Feng Yun 1C

Agency: N/A

Status: Launch Successful

Launch date: May 10, 1999, 1:33 a.m. UTC

Rocket: Long March 4B

Launch pad: Launch Complex 7

Location: Taiyuan Satellite Launch Center, People's Republic of China

...

Latest news about this satellite

There are no fresh news available about this satellite. Check back as we update our databases every day.


Newsletter sign-up

Weekly statistics, charts and insights to help you stay on top of the space industry.